TimeEDT,TemperatureF,Dew PointF,Humidity,Sea Level PressureIn,VisibilityMPH,Wind Direction,Wind SpeedMPH,Gust SpeedMPH,PrecipitationIn,Events,Conditions,WindDirDegrees,DateUTC
12:24 AM,66.0,64.0,93,30.21,4.0,Calm,Calm,-,N/A,,Mostly Cloudy,0,2014-07-22 04:24:00
12:53 AM,64.9,63.0,93,30.16,4.0,Calm,Calm,-,N/A,,Mostly Cloudy,0,2014-07-22 04:53:00
1:09 AM,64.9,63.0,93,30.20,2.0,Calm,Calm,-,N/A,,Mostly Cloudy,0,2014-07-22 05:09:00
1:14 AM,64.0,63.0,96,30.21,4.0,Calm,Calm,-,N/A,,Mostly Cloudy,0,2014-07-22 05:14:00
1:30 AM,64.9,63.0,93,30.20,5.0,Calm,Calm,-,N/A,,Overcast,0,2014-07-22 05:30:00
1:44 AM,64.9,63.0,93,30.20,5.0,Calm,Calm,-,N/A,,Overcast,0,2014-07-22 05:44:00
1:53 AM,66.0,63.0,90,30.16,6.0,Calm,Calm,-,N/A,,Mostly Cloudy,0,2014-07-22 05:53:00
2:00 AM,66.0,64.0,93,30.20,7.0,Calm,Calm,-,N/A,,Mostly Cloudy,0,2014-07-22 06:00:00
2:07 AM,66.0,64.0,93,30.20,6.0,Calm,Calm,-,N/A,,Mostly Cloudy,0,2014-07-22 06:07:00
2:53 AM,64.9,63.0,93,30.14,5.0,Calm,Calm,-,N/A,,Mostly Cloudy,0,2014-07-22 06:53:00
3:17 AM,64.9,63.0,93,30.19,3.0,Calm,Calm,-,N/A,,Mostly Cloudy,0,2014-07-22 07:17:00
3:24 AM,64.9,63.0,93,30.19,1.8,Calm,Calm,-,N/A,,Mostly Cloudy,0,2014-07-22 07:24:00
3:34 AM,64.0,62.1,93,30.19,0.2,Calm,Calm,-,N/A,Fog,Fog,0,2014-07-22 07:34:00
3:46 AM,63.0,62.1,97,30.19,0.2,Calm,Calm,-,N/A,Fog,Fog,0,2014-07-22 07:46:00
3:53 AM,63.0,62.1,97,30.15,0.2,Calm,Calm,-,N/A,Fog,Fog,0,2014-07-22 07:53:00
4:53 AM,61.0,60.1,97,30.15,0.2,Calm,Calm,-,N/A,Fog,Fog,0,2014-07-22 08:53:00
5:11 AM,60.1,59.0,96,30.20,0.2,Calm,Calm,-,N/A,Fog,Fog,0,2014-07-22 09:11:00
5:53 AM,60.1,59.0,96,30.16,0.2,Calm,Calm,-,N/A,Fog,Fog,0,2014-07-22 09:53:00
6:53 AM,62.1,61.0,96,30.17,0.2,ESE,3.5,-,N/A,Fog,Fog,120,2014-07-22 10:53:00
7:53 AM,64.9,64.0,97,30.17,0.2,ESE,3.5,-,N/A,Fog,Fog,120,2014-07-22 11:53:00
8:35 AM,66.9,66.0,97,30.22,2.0,South,3.5,-,N/A,,Overcast,170,2014-07-22 12:35:00
8:45 AM,68.0,66.0,93,30.21,4.0,SE,3.5,-,N/A,,Overcast,130,2014-07-22 12:45:00
8:53 AM,68.0,66.9,96,30.17,4.0,SSE,3.5,-,N/A,,Overcast,160,2014-07-22 12:53:00
9:09 AM,68.0,66.9,96,30.21,6.0,SE,4.6,-,N/A,,Overcast,140,2014-07-22 13:09:00
9:21 AM,69.1,66.9,93,30.21,7.0,ESE,4.6,-,N/A,,Overcast,120,2014-07-22 13:21:00
10:38 AM,73.9,66.9,79,30.20,10.0,SSE,3.5,-,N/A,,Mostly Cloudy,160,2014-07-22 14:38:00
10:53 AM,75.9,66.9,74,30.15,10.0,South,6.9,-,N/A,,Mostly Cloudy,180,2014-07-22 14:53:00
11:26 AM,75.9,66.9,74,30.19,10.0,Variable,3.5,-,N/A,,Scattered Clouds,0,2014-07-22 15:26:00
11:53 AM,78.1,66.0,66,30.14,10.0,Variable,4.6,-,N/A,,Clear,0,2014-07-22 15:53:00
12:53 PM,80.1,64.9,60,30.12,10.0,SSW,10.4,-,N/A,,Mostly Cloudy,200,2014-07-22 16:53:00
1:53 PM,82.9,64.0,53,30.09,10.0,SSW,9.2,-,N/A,,Clear,210,2014-07-22 17:53:00
2:53 PM,82.0,62.1,51,30.08,10.0,SW,9.2,-,N/A,,Scattered Clouds,220,2014-07-22 18:53:00
4:53 PM,82.0,62.1,51,30.06,10.0,SSW,6.9,-,N/A,,Scattered Clouds,210,2014-07-22 20:53:00
5:53 PM,82.9,62.1,49,30.06,10.0,Variable,3.5,-,N/A,,Partly Cloudy,0,2014-07-22 21:53:00
6:53 PM,81.0,63.0,54,30.05,10.0,SW,6.9,-,N/A,,Clear,230,2014-07-22 22:53:00
7:53 PM,79.0,64.0,60,30.06,10.0,Calm,Calm,-,N/A,,Clear,0,2014-07-22 23:53:00
8:53 PM,75.0,64.9,71,30.05,10.0,Calm,Calm,-,N/A,,Clear,0,2014-07-23 00:53:00
9:53 PM,70.0,64.9,84,30.04,10.0,SSE,3.5,-,N/A,,Clear,150,2014-07-23 01:53:00
10:53 PM,69.1,64.0,84,30.02,9.0,Calm,Calm,-,N/A,,Clear,0,2014-07-23 02:53:00
11:53 PM,68.0,64.0,87,30.02,9.0,Calm,Calm,-,N/A,,Clear,0,2014-07-23 03:53:00